DW1289 Weather Reports


time (UTC)temp
C
wind
direction
speed
KPH
gust
KPH
rain 1hr
cm
rain 24hr
cm
rain mn
cm
humidity
%
barometer
mb
20260831101036 21 0.0 0.0 0.00 0.00 0.00 93 1018.6
20260831100016 21 0.0 0.0 0.00 0.00 0.00 93 1018.5
20260831095016 21 0.0 0.0 0.00 0.00 0.00 93 1018.3
20260831094016 21 0.0 1.6 0.00 0.00 0.00 93 1018.3
20260831093016 21 0.0 3.2 0.00 0.00 0.00 93 1018.2
20260831092036 21 0.0 0.0 0.00 0.00 0.00 93 1018.2
20260831091016 21 0.0 3.2 0.00 0.00 0.00 92 1018.1
20260831090016 21 0.0 3.2 0.00 0.00 0.00 92 1018.2
20260831085036 21 0.0 1.6 0.00 0.00 0.00 92 1018.2
20260831084016 21 0.0 0.0 0.00 0.00 0.00 92 1018.2
20260831083016 21 0.0 0.0 0.00 0.00 0.00 91 1018.3
20260831082016 21 0.0 1.6 0.00 0.00 0.00 91 1018.3
20260831081016 21 0.0 0.0 0.00 0.00 0.00 91 1018.1
20260831080016 22 0.0 0.0 0.00 0.00 0.00 91 1018.0
20260831075016 22 0.0 0.0 0.00 0.00 0.00 91 1018.1
20260831074016 22 0.0 0.0 0.00 0.00 0.00 91 1018.0
20260831073016 22 0.0 0.0 0.00 0.00 0.00 91 1018.1
20260831072016 22 0.0 0.0 0.00 0.00 0.00 90 1018.3
20260831071016 22 0.0 0.0 0.00 0.00 0.00 90 1018.3
20260831070016 22 0.0 0.0 0.00 0.00 0.00 90 1018.2
20260831065016 22 0.0 0.0 0.00 0.00 0.00 90 1018.2
20260831064016 22 0.0 0.0 0.00 0.00 0.00 90 1018.5
20260831063016 22 0.0 0.0 0.00 0.00 0.00 90 1018.6
20260831062016 22 0.0 0.0 0.00 0.00 0.00 89 1018.6
20260831061016 22 0.0 0.0 0.00 0.00 0.00 89 1018.5
20260831060016 22 0.0 0.0 0.00 0.00 0.00 88 1018.5
20260831055016 23 0.0 0.0 0.00 0.00 0.00 88 1018.3
20260831054016 23 0.0 0.0 0.00 0.00 0.00 88 1018.4
20260831053016 23 0.0 0.0 0.00 0.00 0.00 88 1018.3
20260831052016 23 0.0 0.0 0.00 0.00 0.00 88 1018.4
20260831051016 23 0.0 0.0 0.00 0.00 0.00 87 1018.5
20260831050036 23 0.0 0.0 0.00 0.00 0.00 87 1018.6
20260831045016 23 0.0 0.0 0.00 0.00 0.00 86 1018.6
20260831044016 23 0.0 0.0 0.00 0.00 0.00 86 1018.7
20260831043016 23 0.0 0.0 0.00 0.00 0.00 86 1018.7
20260831042016 23 0.0 0.0 0.00 0.00 0.00 86 1018.5
20260831041016 24 0.0 0.0 0.00 0.00 0.00 86 1018.4
20260831040016 24 0.0 0.0 0.00 0.00 0.00 85 1018.4
20260831035017 24 0.0 0.0 0.00 0.00 0.00 85 1018.3
20260831034016 24 0.0 0.0 0.00 0.00 0.00 84 1018.3
20260831033016 25 0.0 0.0 0.00 0.00 0.00 83 1018.4
20260831032016 25 0.0 0.0 0.00 0.00 0.00 82 1018.4
20260831031016 25 0.0 0.0 0.00 0.00 0.00 82 1018.4
20260831030016 25 0.0 0.0 0.00 0.00 0.00 81 1018.4
20260831025036 25 0.0 0.0 0.00 0.00 0.00 81 1018.4
20260831024016 25 0.0 0.0 0.00 0.00 0.00 80 1018.2
20260831023016 26 0.0 0.0 0.00 0.00 0.00 79 1018.3
20260831022016 26 0.0 0.0 0.00 0.00 0.00 79 1018.2
20260831021016 26 0.0 0.0 0.00 0.00 0.00 78 1018.1
20260831020016 26 0.0 0.0 0.00 0.00 0.00 77 1018.2
20260831015016 26 0.0 0.0 0.00 0.00 0.00 77 1018.0
20260831014017 27 0.0 0.0 0.00 0.00 0.00 76 1017.9
20260831013016 27 0.0 0.0 0.00 0.00 0.00 76 1017.8
20260831012016 27 0.0 0.0 0.00 0.00 0.00 75 1017.6
20260831011016 27 0.0 0.0 0.00 0.00 0.00 76 1017.6
20260831010016 27 0.0 0.0 0.00 0.00 0.00 77 1017.4
20260831005016 27 0.0 0.0 0.00 0.00 0.00 75 1017.2
20260831004016 27 0.0 0.0 0.00 0.00 0.00 75 1017.2
20260831003016 28 0.0 0.0 0.00 0.00 0.00 72 1017.2
20260831002016 28 0.0 0.0 0.00 0.00 0.00 70 1017.1
20260831001016 29 0.0 0.0 0.00 0.00 0.00 67 1017.0
20260831000016 30 0.0 3.2 0.00 0.00 0.00 65 1017.2
20260830235036 30 0.0 3.2 0.00 0.00 0.00 63 1017.3
20260830234036 31 0.0 4.8 0.00 0.00 0.00 60 1017.3
20260830233016 31 248 1.6 4.8 0.00 0.00 0.00 59 1017.2
20260830232016 31 248 1.6 6.4 0.00 0.00 0.00 57 1017.2
20260830231016 32 248 3.2 8.0 0.00 0.00 0.00 57 1017.2
20260830230036 32 248 3.2 8.0 0.00 0.00 0.00 55 1017.2
20260830225016 32 248 3.2 9.7 0.00 0.00 0.00 53 1017.2
20260830224016 32 248 4.8 9.7 0.00 0.00 0.00 54 1017.2
20260830223016 32 248 4.8 8.0 0.00 0.00 0.00 52 1017.2
20260830222016 32 248 4.8 8.0 0.00 0.00 0.00 51 1017.1
20260830221016 32 248 4.8 14.5 0.00 0.00 0.00 51 1017.2
20260830220036 32 248 4.8 14.5 0.00 0.00 0.00 51 1017.5
20260830215016 33 248 3.2 6.4 0.00 0.00 0.00 51 1017.5
20260830214016 32 248 3.2 9.7 0.00 0.00 0.00 52 1017.7
20260830213016 32 248 3.2 6.4 0.00 0.00 0.00 51 1017.7
20260830212016 33 248 3.2 12.9 0.00 0.00 0.00 48 1017.8
20260830211036 33 248 4.8 11.3 0.00 0.00 0.00 49 1017.8
20260830210016 33 248 4.8 12.9 0.00 0.00 0.00 48 1017.7
20260830205036 33 248 6.4 12.9 0.00 0.00 0.00 49 1017.8
20260830204036 33 248 4.8 12.9 0.00 0.00 0.00 50 1018.0
20260830203016 33 248 4.8 16.1 0.00 0.00 0.00 50 1018.0
20260830202016 33 248 4.8 9.7 0.00 0.00 0.00 50 1018.1
20260830201016 33 248 6.4 12.9 0.00 0.00 0.00 47 1018.3
20260830200016 33 248 4.8 14.5 0.00 0.00 0.00 49 1018.4
20260830195036 33 248 6.4 12.9 0.00 0.00 0.00 48 1018.3
20260830194016 33 248 3.2 11.3 0.00 0.00 0.00 49 1018.6
20260830193036 33 248 6.4 14.5 0.00 0.00 0.00 49 1018.6
20260830192016 33 248 6.4 16.1 0.00 0.00 0.00 50 1018.8
20260830191016 33 248 6.4 17.7 0.00 0.00 0.00 50 1018.9
20260830190016 33 248 6.4 16.1 0.00 0.00 0.00 48 1019.1
20260830185016 32 225 4.8 14.5 0.00 0.00 0.00 51 1019.1
20260830184016 32 248 4.8 11.3 0.00 0.00 0.00 50 1019.4
20260830183036 33 248 3.2 11.3 0.00 0.00 0.00 53 1019.6
20260830182016 32 248 4.8 14.5 0.00 0.00 0.00 55 1019.7
20260830181016 33 248 6.4 14.5 0.00 0.00 0.00 52 1019.8
20260830180016 33 248 3.2 9.7 0.00 0.00 0.00 56 1019.8
20260830175016 32 248 3.2 8.0 0.00 0.00 0.00 54 1019.8
20260830174016 32 248 3.2 6.4 0.00 0.00 0.00 56 1020.1
20260830173056 32 248 4.8 12.9 0.00 0.00 0.00 58 1020.0
20260830172036 32 248 3.2 9.7 0.00 0.00 0.00 55 1020.2
20260830171016 33 248 4.8 12.9 0.00 0.00 0.00 56 1020.4
20260830170016 32 225 4.8 17.7 0.00 0.00 0.00 54 1020.3
20260830165016 32 248 4.8 12.9 0.00 0.00 0.00 56 1020.5
20260830164016 32 248 6.4 16.1 0.00 0.00 0.00 59 1020.5
20260830163016 32 248 6.4 16.1 0.00 0.00 0.00 57 1020.5
20260830162016 32 248 4.8 14.5 0.00 0.00 0.00 57 1020.6
20260830161016 32 248 6.4 14.5 0.00 0.00 0.00 57 1020.6
20260830160016 32 248 4.8 12.9 0.00 0.00 0.00 60 1020.6
20260830155016 31 180 4.8 11.3 0.00 0.00 0.00 62 1020.6
20260830154016 31 248 4.8 11.3 0.00 0.00 0.00 61 1020.6
20260830153016 31 248 4.8 12.9 0.00 0.00 0.00 63 1020.6
20260830152016 30 248 4.8 11.3 0.00 0.00 0.00 66 1020.7
20260830151036 30 248 3.2 12.9 0.00 0.00 0.00 67 1020.6
20260830150016 28 248 3.2 11.3 0.00 0.00 0.00 70 1020.6
20260830145016 28 158 3.2 6.4 0.00 0.00 0.00 70 1020.5
20260830144016 27 225 3.2 11.3 0.00 0.00 0.00 73 1020.4
20260830143016 27 248 3.2 9.7 0.00 0.00 0.00 75 1020.2
20260830142016 26 248 3.2 11.3 0.00 0.00 0.00 78 1020.1
20260830141016 25 248 3.2 6.4 0.00 0.00 0.00 80 1020.1
20260830140016 25 248 3.2 8.0 0.00 0.00 0.00 82 1020.2
20260830135016 23 225 3.2 6.4 0.00 0.00 0.00 85 1020.0
20260830134016 23 248 4.8 9.7 0.00 0.00 0.00 90 1020.0
20260830133016 22 248 3.2 11.3 0.00 0.00 0.00 93 1019.9
20260830132016 21 225 3.2 11.3 0.00 0.00 0.00 94 1019.8
20260830131016 21 248 1.6 4.8 0.00 0.00 0.00 95 1019.8
20260830130016 20 0.0 0.0 0.00 0.00 0.00 95 1019.9
20260830125016 20 0.0 0.0 0.00 0.00 0.00 94 1019.9
20260830124016 19 0.0 0.0 0.00 0.00 0.00 94 1019.8
20260830123016 19 0.0 3.2 0.00 0.00 0.00 94 1019.8
20260830122016 18 0.0 0.0 0.00 0.00 0.00 94 1019.7
20260830121016 18 0.0 0.0 0.00 0.00 0.00 94 1019.6
20260830120016 18 0.0 0.0 0.00 0.00 0.00 94 1019.7
20260830115016 18 0.0 0.0 0.00 0.00 0.00 93 1019.7
20260830114016 18 0.0 0.0 0.00 0.00 0.00 93 1019.5
20260830113016 18 0.0 0.0 0.00 0.00 0.00 93 1019.5
20260830112016 18 0.0 0.0 0.00 0.00 0.00 93 1019.3
20260830111056 18 0.0 0.0 0.00 0.00 0.00 93 1019.3
20260830110016 18 0.0 0.0 0.00 0.00 0.00 93 1019.2
20260830105016 18 0.0 0.0 0.00 0.00 0.00 93 1019.2
20260830104016 18 0.0 0.0 0.00 0.00 0.00 93 1019.2
20260830103016 18 0.0 0.0 0.00 0.00 0.00 93 1019.3